LEMUR-2-JENNYBARNA (42753 NORAD) Tracking and Keplerian Element Data

This shows tracking and keplerian element data for the satellite.

Feedback or suggestion? Click here.




ElementValue
Catalog42753
NameLEMUR-2-JENNYBARNA
Epoch Orbit3834
Epoch Day45.79598098
Epoch Year2018
RAAN317.1632
Inclination51.642
Eccentricity0.0010831
Argument of Perigee126.6086
Mean Anonmoly233.5892
Mean Motion15.29033331
Decay Rate1.501E-05
L11 42753U 17019C 18045.79598098 .00001501 00000-0 65028-4 0 9994
L22 42753 51.6420 317.1632 0010831 126.6086 233.5892 15.29033331 38346

Live tracking and technical data element details for LEMUR-2-JENNYBARNA (NORAD 42753). LEMUR-2-JENNYBARNA can be tracked NOW for your location showing map with azimuth and elevation plus other details from your city location.

Track the satellite on the map from your city or location and see movement details for azimuth, elevation, latitude, longitude, range, height, and movement on the map or in text.







IsCatalogInMostPopularTable: catalog: 42753, numindb: 119
Update: records affected: 1



GetName: 42753 LEMUR-2-JENNYBARNA

Hit Count: updated at: Mon, 12 Nov 2018 17:50:04 GMT